Amateur Radio Satellites - All Passes

Search period start: 20 May 2013 00:41
Search period end: 21 May 2013 00:41
Location: Plymouth, 43.7570°N, 71.6890°W

Satellite Date Start Highest point End Downlink Frequencies (MHz)
Time Altitude Azimuth
MaSat-1 20 May 00:47:25 00:48:35 10° 99° (E) 00:49:43 437.345 MHz
KITSAT 1 20 May 01:09:06 01:16:50 47° 313° (NW) 01:24:38 435.175 FM
Oscar 16 20 May 01:17:35 01:20:15 14° 89° (E) 01:22:54 437.025 USB, Beacon 2401.1428
AO-27 20 May 01:20:50 01:21:28 10° 87° (E) 01:22:07 436.795 MHz FM
ITAMSAT 1 20 May 01:27:05 01:29:03 12° 88° (E) 01:31:01 435.822 SSB
Oscar 10/S400 20 May 01:35:20 05:38:55 24° 84° (E) 07:42:34 145.825 - 145.975 CW/USB, Beacon 145.810 USB
Uribyol 2 20 May 02:06:51 02:11:27 30° 96° (E) 02:16:01 436.500 FM
RS-15 20 May 02:09:46 02:20:59 87° 238° (WSW) 02:31:52 29.354 - 29.394 USB, Beacon 29.352 USB
Oscar 19 20 May 02:16:22 02:21:17 42° 98° (E) 02:26:08 437.125 CW, 437.150 USB
MaSat-1 20 May 02:23:00 02:30:05 61° 113° (ESE) 02:35:58 437.345 MHz
AO-Echo 20 May 02:45:28 02:49:08 22° 94° (E) 02:52:48 ?
Oscar 16 20 May 02:55:00 03:00:12 75° 286° (WNW) 03:05:20 437.025 USB, Beacon 2401.1428
AO-27 20 May 02:56:31 03:01:47 83° 104° (ESE) 03:07:01 436.795 MHz FM
ITAMSAT 1 20 May 03:03:59 03:09:14 87° 285° (WNW) 03:14:28 435.822 SSB
Gurwin Techsat 1B 20 May 03:05:17 03:07:40 13° 88° (E) 03:10:03 435.225 FM
KITSAT 1 20 May 03:09:17 03:14:33 18° 339° (NNW) 03:19:51 435.175 FM
Uribyol 2 20 May 03:46:12 03:50:58 36° 293° (WNW) 03:55:42 436.500 FM
Oscar 19 20 May 03:56:10 04:00:25 26° 296° (WNW) 04:04:39 437.125 CW, 437.150 USB
MaSat-1 20 May 04:06:41 04:12:32 29° 307° (NW) 04:17:29 437.345 MHz
ISS 20 May 04:10:03 04:13:19 58° 144° (SE) 04:16:37 145.800 FM
Uosat F 20 May 04:13:23 04:18:24 66° 102° (ESE) 04:23:23 435.120 FM
TMSAT-1 20 May 04:23:07 04:28:13 45° 99° (E) 04:33:17 436.925 FM
AO-7 20 May 04:23:14 04:28:58 20° 90° (E) 04:34:39 29.400 - 29.500 MHz
AO-Echo 20 May 04:23:40 04:28:06 42° 290° (WNW) 04:32:36 ?
RS-15 20 May 04:23:58 04:31:37 22° 260° (W) 04:39:11 29.354 - 29.394 USB, Beacon 29.352 USB
STRAND 1 20 May 04:32:27 04:33:16 10° 55° (NE) 04:34:04 ?
Oscar 16 20 May 04:37:11 04:38:39 11° 304° (NW) 04:40:08 437.025 USB, Beacon 2401.1428
AO-27 20 May 04:37:48 04:40:37 15° 302° (WNW) 04:43:26 436.795 MHz FM
Gurwin Techsat 1B 20 May 04:42:58 04:48:19 83° 285° (WNW) 04:53:37 435.225 FM
ITAMSAT 1 20 May 04:45:37 04:47:58 13° 303° (WNW) 04:50:19 435.822 SSB
KITSAT 1 20 May 05:09:27 05:13:53 15° 10° (N) 05:18:20 435.175 FM
ISS 20 May 05:47:13 05:50:13 30° 342° (NNW) 05:53:15 145.800 FM
Uosat F 20 May 05:53:29 05:56:41 17° 300° (WNW) 05:59:53 435.120 FM
TMSAT-1 20 May 06:03:36 06:07:54 26° 296° (WNW) 06:12:12 436.925 FM
STRAND 1 20 May 06:06:29 06:11:32 71° 73° (ENE) 06:16:38 ?
AO-7 20 May 06:14:21 06:22:46 89° 289° (WNW) 06:31:09 29.400 - 29.500 MHz
Gurwin Techsat 1B 20 May 06:25:13 06:27:28 13° 303° (WNW) 06:29:42 435.225 FM
Saudisat 1A 20 May 06:31:39 06:36:08 59° 120° (ESE) 06:40:41 436.775 MHz
KITSAT 1 20 May 07:05:10 07:12:20 33° 39° (NE) 07:19:29 435.175 FM
JAS-1B 20 May 07:15:38 07:18:44 14° 86° (E) 07:21:44 435.800 - 435.900 CW/SSB
PCSat 20 May 07:22:45 07:27:14 27° 109° (ESE) 07:31:46 145.825 MHz
ISS 20 May 07:25:02 07:27:39 21° 2° (N) 07:30:17 145.800 FM
Hamsat 20 May 07:40:18 07:44:35 55° 100° (E) 07:48:52 145.90 MHz
STRAND 1 20 May 07:48:32 07:51:17 15° 270° (W) 07:54:02 ?
Sapphire 20 May 07:54:43 07:59:53 48° 114° (ESE) 08:05:05 437.095 MHz 1200 baud AX-25 AFSK
AO-7 20 May 08:08:23 08:14:32 24° 310° (NW) 08:20:41 29.400 - 29.500 MHz
Saudisat 1A 20 May 08:12:35 08:16:12 22° 320° (NW) 08:19:51 436.775 MHz
SO-67 20 May 08:33:42 08:37:18 78° 102° (ESE) 08:40:53 435.3500 MHz FM
KITSAT 1 20 May 09:00:23 09:08:31 76° 242° (WSW) 09:16:35 435.175 FM
ISS 20 May 09:01:50 09:05:01 38° 22° (NNE) 09:08:12 145.800 FM
JAS-1B 20 May 09:04:09 09:10:27 77° 287° (WNW) 09:16:07 435.800 - 435.900 CW/SSB
SO-50 20 May 09:04:42 09:09:05 37° 116° (ESE) 09:13:26 436.795 FM
PCSat 20 May 09:05:12 09:10:25 47° 307° (NW) 09:15:40 145.825 MHz
Hamsat 20 May 09:17:37 09:20:14 16° 297° (WNW) 09:22:52 145.90 MHz
HO-68 20 May 09:26:41 09:32:51 30° 95° (E) 09:38:58 435.675 MHz FM
Oscar 11 20 May 09:32:25 09:34:43 14° 90° (E) 09:37:01 145.825 FM, Beacon 2401.500 USB
JAS-2 20 May 09:37:58 09:43:50 28° 90° (E) 09:49:08 435.800 - 435.900 CW/SSB, 435.910 FM
Sapphire 20 May 09:38:50 09:43:32 30° 313° (NW) 09:48:16 437.095 MHz 1200 baud AX-25 AFSK
ISS 20 May 10:38:36 10:41:45 37° 220° (SW) 10:44:53 145.800 FM
SO-50 20 May 10:45:25 10:49:45 33° 314° (NW) 10:54:02 436.795 FM
PCSat 20 May 10:53:25 10:55:16 12° 330° (NNW) 10:57:07 145.825 MHz
JAS-1B 20 May 10:57:15 10:59:50 13° 310° (NW) 11:02:19 435.800 - 435.900 CW/SSB
KITSAT 1 20 May 10:58:19 11:02:32 15° 261° (W) 11:06:45 435.175 FM
Oscar 11 20 May 11:07:02 11:11:19 57° 287° (WNW) 11:15:36 145.825 FM, Beacon 2401.500 USB
OPAL 20 May 11:07:12 11:12:10 57° 103° (ESE) 11:17:02 ?
MaSat-1 20 May 11:08:24 11:11:19 22° 49° (NE) 11:13:46 437.345 MHz
HO-68 20 May 11:13:54 11:20:51 56° 293° (WNW) 11:27:48 435.675 MHz FM
JAS-2 20 May 11:22:21 11:29:20 56° 291° (WNW) 11:35:30 435.800 - 435.900 CW/SSB, 435.910 FM
Oscar 19 20 May 12:00:28 12:01:14 10° 55° (NE) 12:02:00 437.125 CW, 437.150 USB
UOSAT-12 20 May 12:22:26 12:26:55 69° 122° (ESE) 12:31:27 437.025 FM, 437.400 FM
Oscar 16 20 May 12:35:22 12:39:31 25° 64° (ENE) 12:43:41 437.025 USB, Beacon 2401.1428
AO-27 20 May 12:38:37 12:42:19 20° 61° (ENE) 12:46:02 436.795 MHz FM
ITAMSAT 1 20 May 12:45:39 12:49:36 23° 62° (ENE) 12:53:33 435.822 SSB
OPAL 20 May 12:47:02 12:50:38 20° 301° (WNW) 12:54:12 ?
MaSat-1 20 May 12:50:50 12:53:12 18° 257° (WSW) 12:55:17 437.345 MHz
HO-68 20 May 13:04:26 13:07:03 12° 314° (NW) 13:09:40 435.675 MHz FM
JAS-2 20 May 13:10:17 13:12:39 12° 313° (NW) 13:14:56 435.800 - 435.900 CW/SSB, 435.910 FM
Saudisat 1A 20 May 13:19:27 13:21:54 14° 33° (NNE) 13:24:20 436.775 MHz
Uribyol 2 20 May 13:26:01 13:31:01 52° 70° (ENE) 13:36:04 436.500 FM
Oscar 19 20 May 13:34:29 13:39:38 69° 73° (ENE) 13:44:50 437.125 CW, 437.150 USB
Uosat F 20 May 13:52:17 13:54:57 15° 59° (ENE) 13:57:37 435.120 FM
AO-Echo 20 May 13:59:48 14:04:09 33° 68° (ENE) 14:08:25 ?
UOSAT-12 20 May 14:04:13 14:07:34 20° 321° (NW) 14:10:56 437.025 FM, 437.400 FM
TMSAT-1 20 May 14:09:33 14:11:28 12° 56° (NE) 14:13:24 436.925 FM
Oscar 16 20 May 14:13:39 14:18:37 46° 261° (W) 14:23:38 437.025 USB, Beacon 2401.1428
AO-27 20 May 14:16:19 14:21:25 58° 259° (W) 14:26:33 436.795 MHz FM
ITAMSAT 1 20 May 14:23:45 14:28:46 51° 260° (W) 14:33:49 435.822 SSB
Gurwin Techsat 1B 20 May 14:27:01 14:31:14 25° 63° (ENE) 14:35:28 435.225 FM
RS-15 20 May 14:33:09 14:35:04 11° 92° (E) 14:36:58 29.354 - 29.394 USB, Beacon 29.352 USB
Saudisat 1A 20 May 14:57:54 15:02:28 70° 54° (NE) 15:06:56 436.775 MHz
Sapphire 20 May 14:59:35 15:01:52 13° 32° (NNE) 15:04:09 437.095 MHz 1200 baud AX-25 AFSK
Uribyol 2 20 May 15:06:59 15:10:49 21° 268° (W) 15:14:41 436.500 FM
Oscar 19 20 May 15:16:28 15:19:30 16° 270° (W) 15:22:33 437.125 CW, 437.150 USB
AO-7 20 May 15:23:30 15:30:37 34° 56° (NE) 15:37:46 29.400 - 29.500 MHz
Uosat F 20 May 15:28:07 15:33:07 80° 256° (WSW) 15:38:09 435.120 FM
AO-Echo 20 May 15:38:46 15:42:58 28° 264° (W) 15:47:06 ?
TMSAT-1 20 May 15:45:15 15:50:32 79° 74° (ENE) 15:55:51 436.925 FM
SO-50 20 May 15:56:51 15:58:05 11° 28° (NNE) 15:59:18 436.795 FM
Gurwin Techsat 1B 20 May 16:05:49 16:10:55 48° 261° (W) 16:16:04 435.225 FM
PCSat 20 May 16:08:38 16:13:31 32° 48° (NE) 16:18:22 145.825 MHz
RS-15 20 May 16:33:12 16:44:46 56° 113° (ESE) 16:55:53 29.354 - 29.394 USB, Beacon 29.352 USB
Saudisat 1A 20 May 16:39:11 16:41:35 14° 251° (WSW) 16:43:57 436.775 MHz
Sapphire 20 May 16:41:17 16:46:37 52° 54° (NE) 16:51:54 437.095 MHz 1200 baud AX-25 AFSK
AO-7 20 May 17:14:45 17:22:56 63° 256° (WSW) 17:31:12 29.400 - 29.500 MHz
TMSAT-1 20 May 17:28:27 17:31:05 14° 272° (W) 17:33:44 436.925 FM
SO-50 20 May 17:35:26 17:39:52 47° 50° (NE) 17:44:12 436.795 FM
PCSat 20 May 17:51:57 17:57:04 43° 247° (WSW) 18:02:09 145.825 MHz
JAS-1B 20 May 17:59:45 18:06:34 25° 58° (ENE) 18:12:38 435.800 - 435.900 CW/SSB
STRAND 1 20 May 18:16:39 18:20:35 22° 93° (E) 18:24:30 ?
Sapphire 20 May 18:25:23 18:29:42 25° 252° (WSW) 18:34:00 437.095 MHz 1200 baud AX-25 AFSK
Hamsat 20 May 18:35:45 18:39:46 46° 72° (ENE) 18:43:49 145.90 MHz
RS-15 20 May 18:45:48 18:57:23 53° 317° (NW) 19:08:32 29.354 - 29.394 USB, Beacon 29.352 USB
SO-67 20 May 19:10:58 19:14:13 33° 72° (ENE) 19:17:29 435.3500 MHz FM
UOSAT-12 20 May 19:11:51 19:14:43 16° 35° (NE) 19:17:35 437.025 FM, 437.400 FM
AO-7 20 May 19:15:17 19:17:22 11° 276° (W) 19:19:27 29.400 - 29.500 MHz
SO-50 20 May 19:16:44 19:20:10 22° 248° (WSW) 19:23:34 436.795 FM
JAS-1B 20 May 19:47:01 19:56:26 85° 255° (WSW) 20:04:30 435.800 - 435.900 CW/SSB
JAS-2 20 May 19:51:34 19:56:44 20° 54° (NE) 20:01:54 435.800 - 435.900 CW/SSB, 435.910 FM
STRAND 1 20 May 19:55:06 20:00:02 49° 290° (WNW) 20:04:58 ?
HO-68 20 May 19:57:17 20:03:06 28° 58° (ENE) 20:08:54 435.675 MHz FM
Hamsat 20 May 20:13:28 20:16:06 16° 269° (W) 20:18:46 145.90 MHz
Oscar 11 20 May 20:29:41 20:32:00 14° 62° (ENE) 20:34:20 145.825 FM, Beacon 2401.500 USB
SO-67 20 May 20:45:36 20:47:48 16° 268° (W) 20:50:01 435.3500 MHz FM
OPAL 20 May 20:46:52 20:50:15 18° 58° (ENE) 20:53:37 ?
UOSAT-12 20 May 20:50:58 20:55:36 84° 55° (NE) 21:00:12 437.025 FM, 437.400 FM
RS-15 20 May 21:03:53 21:13:15 27° 348° (NNW) 21:22:18 29.354 - 29.394 USB, Beacon 29.352 USB
JAS-2 20 May 21:32:53 21:40:33 79° 73° (ENE) 21:48:26 435.800 - 435.900 CW/SSB, 435.910 FM
KITSAT 1 20 May 21:40:35 21:43:31 12° 97° (E) 21:46:27 435.175 FM
JAS-1B 20 May 21:41:36 21:47:41 19° 271° (W) 21:53:19 435.800 - 435.900 CW/SSB
HO-68 20 May 21:43:13 21:50:17 65° 257° (WSW) 21:57:24 435.675 MHz FM
Oscar 11 20 May 22:03:29 22:07:44 61° 259° (W) 22:12:03 145.825 FM, Beacon 2401.500 USB
OPAL 20 May 22:23:25 22:28:36 70° 255° (WSW) 22:33:47 ?
UOSAT-12 20 May 22:33:25 22:35:05 12° 252° (WSW) 22:36:46 437.025 FM, 437.400 FM
JAS-2 20 May 23:20:24 23:26:16 23° 272° (W) 23:32:17 435.800 - 435.900 CW/SSB, 435.910 FM
RS-15 20 May 23:20:35 23:30:23 32° 24° (NNE) 23:39:50 29.354 - 29.394 USB, Beacon 29.352 USB
KITSAT 1 20 May 23:29:24 23:37:21 67° 116° (ESE) 23:45:22 435.175 FM
HO-68 20 May 23:38:31 23:39:19 10° 275° (W) 23:40:07 435.675 MHz FM

Developed and maintained by Chris Peat, Heavens-Above GmbH. Please read the updated FAQ before sending e-mail. Imprint. DLR
